Tracking 23099 objects as of 13-May-2021
HD Live streaming from Space Station
objects crossing your sky now

SL-12 R/B(2)

Track SL-12 R/B(2) now!


NORAD ID: 23429
Int'l Code: 1994-082D
Perigee: 35,512.9 km
Apogee: 35,785.1 km
Inclination: 14.7 °
Period: 1,428.7 minutes
Semi major axis: 42019 km
RCS: 2.5118 m2 (large)
Launch date: December 16, 1994
Source: Commonwealth of Independent States (former USSR) (CIS)
Launch site: TYURATAM MISSILE AND SPACE COMPLEX (TTMTR)

Note: This is a ROCKET BODY
aabbcc
Your satellite tracking list
Your tracking list is empty




NASA's NSSDC Master Catalog

Two Line Element Set (TLE):
1 23429U 94082D   21131.94931659 -.00000070  00000-0  00000-0 0  9995
2 23429  14.6962   9.1193 0032384  82.4162 102.5027  1.00790315 97128
Source of the keplerian elements: AFSPC